Location: Marcé
(47.5801°N, 0.3280°W)
Time: 04:23:29
(UTC+01:00)

Explorer 11/Cluster Stage 4 - Pass Details

Date: 02 December 2021
Orbit: 467 x 1255 km, 28.8° (Epoch: 26 January)

Event Time Altitude Azimuth Distance (km) Brightness Sun altitude
Rises 08:18:43 0° 248° (WSW) 4,143 9.9 -2.4°
Reaches altitude 10° 08:24:21 10° 218° (SW) 3,222 9.7 -1.6°
Maximum altitude 08:26:32 11° 202° (SSW) 3,125 9.8 -1.3°
Drops below altitude 10° 08:28:43 10° 186° (S) 3,207 10.1 -1.0°
Sets 08:34:18 0° 156° (SSE) 4,086 11.4 -0.2°
